Regional Weather Roundup
Issued by NWS Sterling, VA

Home | Current Version | Previous Version | Graphics & Text | Print | Product List | Glossary On
Versions: 1 2 3 4 5 6 7 8 9 10 11 12 13 14 15 16 17 18 19 20 21 22 23 24 25 26 27
000
ASUS41 KLWX 211811
RWRLWX

REGIONAL WEATHER ROUNDUP
NATIONAL WEATHER SERVICE BALTIMORE MD/WASHINGTON DC
200 PM EDT WED JUN 21 2017

Note: "FAIR" indicates few or no clouds below 12,000 feet
with no significant weather and/or obstructions to visibility.
 TC=TEMPERATURE CELSIUS

 * =Non NWS site. Station does not report precipitation (e.g. rain,
    snow, etc.), thunder, or fog.

DCZ001-MDZ009-015-VAZ040>042-051-053>054-211900-
WASHINGTON METRO

CITY           SKY/WX    TMP DP  RH WIND       PRES   REMARKS
WASHINGTON NAT PTSUNNY   86  59  39 W12       29.97S
DULLES         PTSUNNY   87  58  37 SW8       29.96F
ANDREWS AFB    PTSUNNY   83  64  51 W7        29.96F
FT BELVOIR     MOSUNNY   87  59  39 NW7       29.96F
QUANTICO       PTSUNNY   86  64  47 W8        29.97F
COLLEGE PARK*  CLOUDY    87  60  40 SW6       29.96S
LEESBURG*      MOSUNNY   88  64  45 W7G17     29.98F
MANASSAS*      PTSUNNY   86  63  45 VRB6      29.97F
GAITHERSBURG*  PTSUNNY   86  62  44 SW10G16   29.98F

$$

MDZ006>007-011-014-211900-
BALTIMORE METRO

CITY           SKY/WX    TMP DP  RH WIND       PRES   REMARKS
BWI AIRPORT    CLOUDY    86  59  39 W13G24    29.95F
MD SCIENCE CTR   N/A     89  59  36 MISG      29.96S
MARTIN STATE   PTSUNNY   84  64  51 W5        29.96F
ANNAPOLIS      MOSUNNY   86  63  45 NW9       29.95F
FORT MEADE*    CLOUDY    84  63  48 NW7       29.99S

$$

MDZ012-015-019>023-211900-
MARYLAND EASTERN SHORE

CITY           SKY/WX    TMP DP  RH WIND       PRES   REMARKS
OCEAN CITY     MOSUNNY   79  71  76 S8G18     29.99F
SALISBURY      SUNNY     83  70  64 SW12      29.98F
BAY BRIDGE AP* CLOUDY    88  70  55 S12       29.96F HX  92
CAMBRIDGE*     SUNNY     82  70  65 SW6G13    29.97F

$$

MDZ017>025-211900-
SOUTHERN MARYLAND

CITY           SKY/WX    TMP DP  RH WIND       PRES   REMARKS
PATUXENT RIVER MOSUNNY   85  69  58 SW10      29.97F
ST INIGOES     SUNNY     84  72  67 S8        29.97F
LEONARDTOWN*   SUNNY     82  64  54 W9        29.99F

$$

MDZ003>005-211900-
NORTH CENTRAL MARYLAND

CITY           SKY/WX    TMP DP  RH WIND       PRES   REMARKS
FREDERICK*     MOSUNNY   84  54  34 W12G18    29.99F
HAGERSTOWN APT PTSUNNY   83  58  42 SW10G21   29.96F
WESTMINSTER*   SUNNY     84  59  42 SW14G20   29.97F

$$

MDZ501>502-211900-
WESTERN MARYLAND

CITY           SKY/WX    TMP DP  RH WIND       PRES   REMARKS
OAKLAND*       NOT AVBL
CUMBERLAND*    CLOUDY    81  63  54 S7        30.00F

$$

VAZ025>031-211900-
SHENANDOAH VALLEY

CITY           SKY/WX    TMP DP  RH WIND       PRES   REMARKS
WINCHESTER*    PTSUNNY   82  57  42 W15G22    29.98F
FRONT ROYAL*   PTSUNNY   86  55  35 W5G20     29.97F
LURAY*         CLOUDY    82  59  44 SW8       30.00F
NEW MARKET*    CLOUDY    81  60  48 W5        29.99S
STAUNTON*      CLOUDY    81  59  47 SW7       30.05S
WAYNESBORO*    PTSUNNY   81  61  51 SW6       30.05F

$$

WVZ021-048>050-054>055-211900-
EASTERN WEST VIRGINIA PANHANDLE

CITY           SKY/WX    TMP DP  RH WIND       PRES   REMARKS
MARTINSBURG    CLOUDY    83  58  42 SW8       29.96F
PETERSBURG*    CLOUDY    82  59  45 W7        30.00F

$$

VAZ036>039-050-211900-
CENTRAL FOOTHILLS

CITY           SKY/WX    TMP DP  RH WIND       PRES   REMARKS
CHARLOTTESVILL MOSUNNY   86  59  39 VRB5      29.99F
CULPEPER*      PTSUNNY   86  64  47 NW3       29.98F
ORANGE*        PTSUNNY   86  63  45 CALM      29.98F
GORDONSVILLE*  MOSUNNY   87  66  50 SW8       29.98F
WARRENTON*     MOSUNNY   88  56  33 W5        29.98F

$$

VAZ055>057-211900-
NORTH AND CENTRAL PIEDMONT

CITY           SKY/WX    TMP DP  RH WIND       PRES   REMARKS
FREDERICKSBRG* MOSUNNY   87  63  45 CALM      29.96F
STAFFORD*      CLOUDY    81  68  65 N7        30.02S

$$

NCZ024-NYZ072-PAZ021-071-VAZ022-071-211900-
OTHER REGIONAL OBSERVATIONS

CITY           SKY/WX    TMP DP  RH WIND       PRES   REMARKS
NEW YORK CITY  CLOUDY    81  58  45 VRB5      29.92F
PHILADELPHIA   CLOUDY    86  57  37 W13       29.92F
PITTSBURGH     LGT RAIN  70  65  84 W8        29.99S
ROANOKE        MOSUNNY   82  60  47 SW6       30.06F
RICHMOND       MOSUNNY   85  69  58 SW10      30.00F
RALEIGH        PTSUNNY   82  72  71 W9        30.08F

$$

ANZ530>537-211900-
MARINE OBSERVATIONS

STATION/POSITION TIME  TEMP    WIND        PRES
                       AIR SEA DIR/SP/G
                 (UTC) (F)     (DEG/KT/KT) (MB)
THOMAS PT LIGHT  1800   79 77  170/ 11/ 13   N/A
BALT KEY BRIDGE  1748          260/ 12/ 15   N/A
COVE POINT       1748          250/  7/ 12   N/A
LEWISETTA        1748      77  250/  8/ 10   N/A
SOLOMONS ISLAND  1748      75  230/ 11/ 13   N/A
PINEY POINT      1748          260/  3/  4   N/A

$$





USA.gov is the U.S. government's official web portal to all federal, state and local government web resources and services.